Location: Bonningues
(50.7927°N, 2.0150°E)
Time: 05:34:36
(UTC+00:00)

ERBS - Pass Details

Date: 08 August 2020
Orbit: 413 x 420 km, 57.0° (Epoch: 23 September)

Event Time Altitude Azimuth Distance (km) Brightness Sun altitude
Rises 23:44:39 0° 299° (WNW) 2,358 6.5 -23.4°
Reaches altitude 10° 23:46:50 10° 308° (NW) 1,492 5.5 -23.4°
Maximum altitude 23:49:58 37° 17° (NNE) 669 3.7 -23.4°
Enters shadow 23:50:30 34° 41° (NE) 706 3.7 -23.4°
